Regional Weather Roundup
Issued by NWS

Home | Current Version | Previous Version | Graphics & Text | Print | Product List | Glossary On
Versions: 1 2 3 4 5 6 7 8 9 10 11 12 13 14 15 16 17 18 19 20 21 22 23 24 25 26 27 28 29 30 31 32 33 34 35 36 37 38 39 40 41 42 43 44 45 46 47 48 49 50
000
ASUS43 KIND 250959
RWRIN

WEATHER ROUNDUP FOR INDIANA
NATIONAL WEATHER SERVICE INDIANAPOLIS IN
500 AM EST THU DEC 25 2014

NOTE: "FAIR" INDICATES FEW OR NO CLOUDS BELOW 12,000 FEET WITH NO
SIGNIFICANT WEATHER AND/OR OBSTRUCTIONS TO VISIBILITY.

* - STATION DOES NOT REPORT WEATHER SUCH AS PRECIPITATION OR FOG.

+ - STATION NOT QUALITY CONTROLLED BY THE NATIONAL WEATHER SERVICE.
    USE DATA WITH CAUTION...ESPECIALLY DEWPOINT AND RELATIVE
    HUMIDITY OBSERVATIONS.

INZ001>003-010>013-019-020-251100-
NORTHWEST INDIANA

CITY           SKY/WX    TMP DP  RH WIND       PRES   REMARKS
RENSSELAER +   CLOUDY    36  34  93 W17G24    29.83R
VALPARAISO     NOT AVBL

$$

LMZ046-743>745-251100-
SOUTHERN LAKE MICHIGAN

STATION/POSITION TIME  TEMP WIND        PRES
                       AIR  DIR/SP/G
                 (UTC) (F)  (DEG/KT/KT) (MB)
MICHIGAN CITY    0900   37  230/ 22/ 24   N/A

$$

INZ004-005-014>016-021>024-251100-
NORTH CENTRAL INDIANA

CITY           SKY/WX    TMP DP  RH WIND       PRES   REMARKS
GOSHEN         CLOUDY    36  32  85 W15       29.75R
SOUTH BEND     CLOUDY    37  32  82 W13       29.76R

$$

INZ006>009-017-018-025>027-251100-
NORTHEAST INDIANA

CITY           SKY/WX    TMP DP  RH WIND       PRES   REMARKS
ANGOLA *+      CLOUDY    36  34  93 W10       29.71R
FORT WAYNE     CLOUDY    36  33  89 W18       29.77R

$$

INZ028-029-035-036-043>045-051>053-251100-
WEST CENTRAL INDIANA

CITY           SKY/WX    TMP DP  RH WIND       PRES   REMARKS
GREENCASTLE +  CLOUDY    34  30  86 W7        29.88S WCI  28
LAFAYETTE      CLOUDY    35  31  85 W15       29.85R WCI  25
TERRE HAUTE    CLOUDY    37  31  78 W10       29.92R

$$

INZ030>032-037>040-046>048-054>057-064-065-251100-
CENTRAL INDIANA

CITY           SKY/WX    TMP DP  RH WIND       PRES   REMARKS
INDIANAPOLIS   CLOUDY    34  30  85 W15       29.86S WCI  24
-EAGLE CREEK   CLOUDY    35  29  78 W14G24    29.86R WCI  26
KOKOMO *+      CLOUDY    36  30  80 W14G21    29.82R
MT COMFORT *+  CLOUDY    36  36 100 W15       29.86R
SHELBYVILLE    CLOUDY    38  33  82 W15       29.87R

$$

INZ033-034-041-042-049-050-058-059-251100-
EAST CENTRAL INDIANA

CITY           SKY/WX    TMP DP  RH WIND       PRES   REMARKS
MUNCIE         CLOUDY    37  33  85 W16       29.82R

$$

INZ060-061-067>069-081>083-085>088-251100-
SOUTHWEST INDIANA

CITY           SKY/WX    TMP DP  RH WIND       PRES   REMARKS
EVANSVILLE     CLOUDY    40  34  79 SW12      29.98R
HUNTINGBURG *+ CLOUDY    37  32  81 W8        29.97R

$$

INZ062-063-066-070>080-084-089>092-251100-
SOUTH CENTRAL AND SOUTHEAST INDIANA

CITY           SKY/WX    TMP DP  RH WIND       PRES   REMARKS
BLOOMINGTON    CLOUDY    36  33  89 W8        29.90R

$$




USA.gov is the U.S. government's official web portal to all federal, state and local government web resources and services.